Aberdeen / Amory, MS

3:26 AM CDT on October 17, 2019 (GMT -0500)
Aberdeen / Amory

Weather History for KM40 - August, 2019

Change the Weather History Date:

Monday, August 19, 2019

  Actual Average (KCBM) Record (KCBM)
Temperature  
Mean Temperature 82 °F -  
Max Temperature 93 °F 88 °F 104 °F (1999)
Min Temperature 71 °F 68 °F 66 °F (2004)
Cooling Degree Days 17    
Growing Degree Days 32 (Base 50)    
Moisture  
Dew Point 62 °F    
Average Humidity 55    
Maximum Humidity 57    
Minimum Humidity 52    
Precipitation  
Precipitation 0.00 in - - ()
Sea Level Pressure  
Sea Level Pressure 30.03 in    
Wind  
Wind Speed 1 mph (South)    
Max Wind Speed 13 mph    
Max Gust Speed 26 mph    
Visibility 7 miles    
Events Rain    
Averages and records for this station are not official NWS values.
T = Trace of Precipitation, MM = Missing Value Source: NWS Daily Summary

Daily Weather History Graph

Daily Weather History Graph

Search for Another Location

Airport or City:

Astronomy

Aug. 19, 2019 Rise Set
Actual Time 6:18 AM CDT 7:36 PM CDT
Civil Twilight 5:52 AM CDT 8:02 PM CDT
Nautical Twilight 5:21 AM CDT 8:33 PM CDT
Astronomical Twilight 4:48 AM CDT 9:05 PM CDT
Moon 10:07 PM CDT (8/19) 9:50 AM CDT (8/19)
Length of Visible Light 14h 10m
Length of Day
13h 17m
Waning Gibbous, 85% of the Moon is Illuminated
Aug 19
Waning Gibbous
Aug 23
Last Quarter
Aug 30
New
Sep 5
First Quarter
Sep 13
Full

Hourly Weather History & Observations

Time (CDT) Temp. Heat Index Dew Point Humidity Pressure Visibility Wind Dir Wind Speed Gust Speed Precip Events Conditions
12:15 AM 75.2 °F - 59.0 °F 57% 30.00 in 10.0 mi Calm Calm - N/A   Clear
12:35 AM 75.2 °F - 59.0 °F 57% 30.01 in 10.0 mi Calm Calm - N/A   Clear
12:55 AM 75.2 °F - 57.2 °F 53% 30.00 in 8.0 mi Calm Calm - N/A   Clear
1:15 AM 73.4 °F - 57.2 °F 57% 30.00 in 7.0 mi Calm Calm - N/A   Clear
1:35 AM 73.4 °F - 57.2 °F 57% 30.00 in 6.0 mi South 4.6 mph - N/A   Haze
1:55 AM 73.4 °F - 57.2 °F 57% 29.99 in 6.0 mi Calm Calm - N/A   Haze
2:15 AM 73.4 °F - 57.2 °F 57% 30.00 in 6.0 mi Calm Calm - N/A   Haze
2:35 AM 73.4 °F - 57.2 °F 57% 30.00 in 6.0 mi Calm Calm - N/A   Haze
2:55 AM 73.4 °F - 57.2 °F 57% 30.00 in 5.0 mi Calm Calm - N/A   Haze
3:15 AM 73.4 °F - 55.4 °F 53% 30.00 in 5.0 mi Calm Calm - N/A   Haze
3:55 AM 73.4 °F - 55.4 °F 53% 30.00 in 5.0 mi South 4.6 mph - N/A   Haze
4:15 AM 73.4 °F - 57.2 °F 57% 30.00 in 6.0 mi Calm Calm - N/A   Haze
4:35 AM 73.4 °F - 57.2 °F 57% 30.01 in 4.0 mi Calm Calm - N/A   Haze
4:55 AM 73.4 °F - 57.2 °F 57% 30.02 in 4.0 mi Calm Calm - N/A   Haze
5:15 AM 73.4 °F - 55.4 °F 53% 30.02 in 4.0 mi Calm Calm - N/A   Haze
5:35 AM 73.4 °F - 57.2 °F 57% 30.03 in 5.0 mi Calm Calm - N/A   Haze
5:55 AM 73.4 °F - 55.4 °F 53% 30.03 in 5.0 mi Calm Calm - N/A   Haze
6:15 AM 73.4 °F - 55.4 °F 53% 30.04 in 5.0 mi Calm Calm - N/A   Haze
6:55 AM 73.4 °F - 55.4 °F 53% 30.05 in 4.0 mi Calm Calm - N/A   Haze
7:15 AM 73.4 °F - 57.2 °F 57% 30.06 in 3.0 mi Calm Calm - N/A   Haze
7:35 AM 75.2 °F - 57.2 °F 53% 30.06 in 4.0 mi Calm Calm - N/A   Haze
7:55 AM 75.2 °F - 57.2 °F 53% 30.07 in 5.0 mi Calm Calm - N/A   Haze
8:15 AM 78.8 °F - 60.8 °F 54% 30.07 in 8.0 mi Calm Calm - N/A   Clear
8:35 AM 80.6 °F 81.8 °F 62.6 °F 54% 30.07 in 9.0 mi Calm Calm - N/A   Clear
8:55 AM 82.4 °F 83.9 °F 64.4 °F 54% 30.06 in 10.0 mi Calm Calm - N/A   Clear
9:15 AM 84.2 °F 86.6 °F 66.2 °F 55% 30.06 in 10.0 mi Variable 4.6 mph - N/A   Partly Cloudy
9:35 AM 84.2 °F 86.6 °F 66.2 °F 55% 30.07 in 10.0 mi Calm Calm - N/A   Scattered Clouds
9:55 AM 86.0 °F 89.4 °F 68.0 °F 55% 30.07 in 10.0 mi Calm Calm - N/A   Mostly Cloudy
10:15 AM 86.0 °F 89.4 °F 68.0 °F 55% 30.07 in 10.0 mi WNW 4.6 mph - N/A   Overcast
10:35 AM 87.8 °F 92.6 °F 69.8 °F 55% 30.07 in 10.0 mi Calm Calm - N/A   Scattered Clouds
10:55 AM 89.6 °F 94.7 °F 69.8 °F 52% 30.06 in 10.0 mi Variable 3.5 mph - N/A   Clear
11:15 AM 89.6 °F 96.2 °F 71.6 °F 55% 30.06 in 10.0 mi ENE 4.6 mph - N/A   Clear
11:35 AM 89.6 °F 96.2 °F 71.6 °F 55% 30.06 in 10.0 mi Calm Calm - N/A   Partly Cloudy
11:55 AM 91.4 °F 100.1 °F 73.4 °F 55% 30.06 in 10.0 mi Calm Calm - N/A   Partly Cloudy
12:15 PM 89.6 °F 96.2 °F 71.6 °F 55% 30.05 in 10.0 mi Calm Calm - N/A   Scattered Clouds
12:35 PM 91.4 °F 100.1 °F 73.4 °F 55% 30.04 in 10.0 mi North 5.8 mph - N/A   Mostly Cloudy
12:55 PM 91.4 °F 100.1 °F 73.4 °F 55% 30.04 in 10.0 mi NW 3.5 mph - N/A   Overcast
1:15 PM 82.4 °F 83.9 °F 64.4 °F 54% 30.04 in 4.0 mi WSW 5.8 mph 17.3 mph N/A   Light Drizzle
1:35 PM 82.4 °F 83.9 °F 64.4 °F 54% 30.04 in 5.0 mi North 8.1 mph - N/A   Light Drizzle
1:55 PM 77.0 °F - 59.0 °F 54% 30.03 in 0.8 mi NNE 8.1 mph 19.6 mph N/A Rain Rain
2:15 PM 80.6 °F 81.8 °F 62.6 °F 54% 30.02 in 9.0 mi Calm Calm - N/A   Light Drizzle
2:35 PM 87.8 °F 92.6 °F 69.8 °F 55% 30.01 in 10.0 mi Calm Calm - N/A   Clear
2:55 PM 87.8 °F 92.6 °F 69.8 °F 55% 30.00 in 10.0 mi Calm Calm - N/A   Clear
3:15 PM 89.6 °F 96.2 °F 71.6 °F 55% 29.99 in 10.0 mi Calm Calm - N/A   Clear
3:35 PM 91.4 °F 100.1 °F 73.4 °F 55% 29.98 in 10.0 mi Calm Calm - N/A   Clear
3:55 PM 93.2 °F 105.0 °F 75.2 °F 56% 29.97 in 10.0 mi SW 4.6 mph - N/A   Clear
4:15 PM 93.2 °F 105.0 °F 75.2 °F 56% 29.97 in 10.0 mi Variable 3.5 mph - N/A   Clear
4:35 PM 93.2 °F 105.0 °F 75.2 °F 56% 29.97 in 10.0 mi SSW 4.6 mph - N/A   Clear
4:55 PM 93.2 °F 105.0 °F 75.2 °F 56% 29.99 in 10.0 mi SW 6.9 mph - N/A   Clear
5:15 PM 93.2 °F 105.0 °F 75.2 °F 56% 29.99 in 10.0 mi SSW 9.2 mph - N/A   Clear
5:35 PM 82.4 °F 83.9 °F 64.4 °F 54% 30.02 in 8.0 mi East 12.7 mph 20.7 mph N/A   Light Drizzle
5:55 PM 73.4 °F - 57.2 °F 57% 30.05 in 0.2 mi ESE 12.7 mph 26.5 mph N/A Rain Heavy Rain
6:15 PM 73.4 °F - 57.2 °F 57% 30.03 in 2.5 mi NW 4.6 mph - N/A Rain Light Rain
6:35 PM 75.2 °F - 57.2 °F 53% 30.02 in 9.0 mi South 8.1 mph - N/A   Mostly Cloudy
6:55 PM 75.2 °F - 57.2 °F 53% 30.01 in 9.0 mi Calm Calm - N/A   Partly Cloudy
7:15 PM 75.2 °F - 57.2 °F 53% 30.02 in 8.0 mi Calm Calm - N/A   Clear
7:35 PM 75.2 °F - 57.2 °F 53% 30.03 in 7.0 mi Calm Calm - N/A   Partly Cloudy
7:55 PM 73.4 °F - 57.2 °F 57% 30.03 in 9.0 mi Calm Calm - N/A   Scattered Clouds
8:15 PM 73.4 °F - 57.2 °F 57% 30.03 in 9.0 mi SSE 3.5 mph - N/A   Partly Cloudy
8:35 PM 73.4 °F - 57.2 °F 57% 30.04 in 8.0 mi ESE 3.5 mph - N/A   Partly Cloudy
8:55 PM 73.4 °F - 57.2 °F 57% 30.04 in 9.0 mi Calm Calm - N/A   Clear
9:15 PM 75.2 °F - 57.2 °F 53% 30.05 in 10.0 mi Calm Calm - N/A   Clear
9:35 PM 73.4 °F - 57.2 °F 57% 30.05 in 3.0 mi Calm Calm - N/A   Haze
9:55 PM 73.4 °F - 57.2 °F 57% 30.07 in 7.0 mi SE 6.9 mph - N/A   Clear
10:15 PM 73.4 °F - 57.2 °F 57% 30.07 in 10.0 mi Calm Calm - N/A   Clear
10:35 PM 73.4 °F - 57.2 °F 57% 30.09 in 10.0 mi Calm Calm - N/A   Clear
10:55 PM 73.4 °F - 55.4 °F 53% 30.08 in 9.0 mi North - - N/A   Clear
11:15 PM 71.6 °F - 55.4 °F 57% 30.08 in 7.0 mi Calm Calm - N/A   Clear
11:35 PM 71.6 °F - 55.4 °F 57% 30.07 in 5.0 mi Calm Calm - N/A   Haze
11:55 PM 71.6 °F - 53.6 °F 53% 30.08 in 1.5 mi Calm Calm - N/A   Haze